Wind_Speed
34 33 33 33 34 33 32 30 29 28 29 29 28 27 25 24 24 23 22 21 21 20 20 19 19 18 18 17 17 17 17 16 16 15 15 14 13 13 12 12 11 11 10 9 9 9 9 9 9
36 36 35 35 35 33 31 30 30 30 30 30 30 28 27 26 25 24 23 23 22 22 21 21 20 20 19 19 18 19 18 18 18 18 17 17 16 16 15 14 14 13 13 12 12 11 11 11 11
39 38 38 37 36 33 31 31 31 31 31 31 30 30 29 28 27 26 26 25 24 24 23 23 23 22 22 21 21 20 20 20 20 20 19 19 19 18 18 17 16 16 15 15 14 14 13 13 13
41 41 40 39 37 34 34 33 32 32 32 31 31 31 30 29 29 28 27 27 26 26 26 26 25 25 24 24 23 23 22 22 22 22 22 21 21 20 20 20 19 18 18 17 17 17 16 16 15
43 42 42 40 38 35 35 34 34 33 33 32 31 31 30 31 30 30 30 29 28 28 28 28 28 28 27 27 26 26 25 25 24 24 24 23 23 23 22 22 22 21 21 20 20 20 19 18 18
44 43 43 40 38 36 35 35 34 34 33 32 32 32 31 32 32 32 32 31 31 30 31 31 30 30 29 30 29 29 29 28 27 26 26 26 25 25 24 24 24 24 23 23 23 22 22 22 21
44 43 42 40 39 38 36 36 36 35 34 33 33 32 32 32 33 33 33 33 33 33 33 33 33 33 32 32 32 32 32 31 30 30 29 28 28 27 27 27 27 26 26 26 25 25 24 24 23
43 43 43 41 40 39 38 37 37 37 36 35 34 34 33 33 33 34 35 35 35 35 35 35 35 35 35 35 35 35 34 34 33 33 33 32 31 30 30 29 29 29 29 29 28 28 27 26 26
43 43 42 41 41 40 39 38 38 38 37 37 36 35 35 35 35 35 35 36 36 36 36 37 37 38 38 37 37 37 37 37 36 36 36 35 34 34 33 32 32 32 32 31 31 30 30 29 28
42 42 41 41 41 41 40 40 39 39 38 38 38 37 37 36 36 36 36 37 37 38 38 38 38 39 39 39 39 39 39 39 38 38 38 37 37 37 36 36 35 35 34 34 33 33 33 32 31
41 41 40 41 41 41 41 40 39 39 39 39 38 38 38 38 38 37 38 38 38 39 39 39 39 39 39 39 40 40 40 40 40 40 40 40 39 39 39 39 39 38 37 37 36 36 35 35 34
40 40 40 40 40 40 40 40 39 39 39 39 39 39 39 38 38 38 38 38 39 39 39 40 40 40 40 40 40 41 41 41 42 42 42 42 42 42 41 42 41 41 41 40 40 39 38 37 37
38 39 39 39 39 39 39 39 39 38 38 38 39 39 39 40 39 39 39 38 39 40 40 41 41 41 41 42 42 42 42 43 43 44 44 44 44 44 43 44 44 44 44 43 43 42 41 40 40
36 37 37 38 38 38 38 38 38 38 38 38 38 38 39 40 39 39 39 39 39 40 41 41 42 42 42 43 44 44 45 45 45 46 46 46 46 46 45 45 46 46 46 46 45 45 45 44 43
34 35 36 36 37 37 37 37 37 37 37 38 38 38 38 38 38 39 39 40 40 40 41 42 42 43 43 44 44 45 46 47 47 47 47 47 47 47 47 47 47 47 47 48 48 47 46 46 45
32 33 34 35 35 35 36 36 36 37 37 37 37 37 38 38 38 38 39 39 40 40 40 41 42 42 42 42 43 44 44 45 46 47 47 48 48 48 48 48 48 47 48 48 49 49 49 48 47
31 32 32 33 34 34 35 35 35 36 36 36 37 37 37 38 38 38 38 38 39 39 39 40 41 41 42 42 43 43 44 44 45 45 46 47 48 48 49 49 49 48 49 49 49 50 50 50 49
28 29 30 32 32 33 34 34 34 35 35 36 36 37 37 37 37 37 37 38 38 39 40 40 41 41 42 43 43 43 43 43 44 45 45 45 46 47 48 49 49 50 50 50 50 50 51 51 51
25 27 29 30 31 32 33 34 33 34 34 34 35 35 36 36 36 37 37 38 38 38 39 39 40 41 41 42 42 42 42 43 44 44 45 45 45 46 47 48 49 50 51 51 51 51 51 52 52
23 25 26 28 29 31 32 32 33 33 33 33 33 34 34 35 36 37 37 38 38 38 38 38 39 40 40 40 41 41 42 43 43 44 45 46 46 47 47 48 49 50 51 52 52 53 53 52 52
22 22 24 26 27 29 30 31 31 32 32 32 32 33 33 34 35 36 36 36 36 37 37 37 38 38 39 39 40 41 42 43 44 45 46 46 47 47 48 48 49 50 50 51 52 53 54 53 53
19 21 23 24 25 26 28 30 29 30 31 32 32 32 33 33 33 34 34 35 34 34 35 35 36 36 37 38 39 40 41 42 44 45 46 47 47 47 47 47 48 49 49 50 50 51 52 53 52
17 19 20 22 23 24 25 27 27 29 29 30 31 31 32 32 32 32 32 33 33 32 32 33 33 33 34 36 37 38 39 40 41 42 43 43 44 44 45 45 46 47 48 48 49 50 50 52 52
14 16 18 19 20 21 22 24 23 25 27 29 29 30 30 31 31 31 30 30 31 31 32 32 32 32 33 34 35 37 38 39 39 39 41 42 43 43 43 43 45 45 46 47 48 49 49 51 52
11 13 15 16 18 19 20 21 21 22 24 26 27 28 29 29 29 28 28 28 29 30 31 31 31 31 32 33 34 35 36 37 38 38 39 40 41 42 42 43 44 44 44 45 45 46 47 48 50
10 11 12 14 16 16 17 18 18 19 20 22 23 24 25 25 25 26 26 26 27 28 29 31 31 31 32 33 34 34 34 34 35 34 35 36 38 39 41 42 43 43 43 43 43 43 43 44 46
10 10 11 13 14 14 15 16 16 17 19 19 20 21 22 23 23 24 25 25 26 27 29 30 30 31 31 32 31 31 31 32 32 32 33 34 35 37 38 39 40 41 40 40 40 42 42 43 45
10 10 11 11 12 13 13 14 15 16 17 18 19 20 21 22 23 23 24 24 26 27 28 29 29 29 29 29 29 28 29 30 31 31 31 33 33 33 33 35 37 38 39 40 40 41 42 43 45
9 10 10 11 12 13 13 13 14 15 16 18 19 20 21 21 21 22 23 24 24 25 26 26 27 27 27 27 26 26 26 27 28 28 29 30 30 31 32 33 34 36 37 38 39 40 41 42 44
9 10 10 11 12 13 14 13 13 14 15 16 18 19 19 20 20 21 21 22 22 22 22 23 23 24 24 24 24 24 24 25 26 26 27 27 27 28 29 31 32 33 33 35 36 38 39 40 41
Wind_Direction
238 238 238 239 239 239 240 239 239 238 239 240 242 243 243 244 245 246 246 246 247 248 248 249 249 251 252 253 254 256 257 257 258 257 258 259 261 263 264 264 266 268 270 273 276 278 280 281 283
238 238 238 238 240 240 241 240 239 239 239 239 241 243 243 245 247 248 247 246 247 248 249 249 250 251 253 254 255 257 258 259 260 260 260 261 261 262 263 265 266 267 268 269 272 275 275 277 277
237 237 238 239 240 241 242 241 240 239 239 239 240 241 243 244 246 248 248 248 248 249 250 250 251 252 254 255 256 257 258 260 261 262 262 262 263 263 263 264 265 266 267 267 269 272 273 275 275
237 237 238 239 240 241 241 240 240 240 240 240 240 241 242 244 246 248 249 250 250 250 251 251 252 253 254 256 257 258 259 260 261 262 263 263 264 265 265 264 265 266 266 266 267 268 270 274 275
236 237 238 239 239 239 239 238 239 240 241 241 241 242 243 244 246 248 249 251 251 252 252 253 253 254 255 256 258 259 260 261 262 263 263 263 264 265 265 266 265 266 266 267 267 267 268 271 273
236 237 238 238 237 237 237 237 238 240 241 241 242 243 243 245 247 248 250 252 252 252 253 254 255 256 257 257 258 259 261 261 262 263 263 263 264 264 265 265 265 266 266 267 267 266 267 269 271
236 237 237 237 236 235 236 237 238 240 241 242 243 244 246 247 248 250 251 253 254 254 254 255 256 257 258 259 259 260 261 261 262 263 263 263 264 264 264 264 264 265 265 266 267 267 268 269 270
235 236 236 236 235 235 236 238 239 241 242 244 245 246 247 249 250 251 252 254 255 255 256 256 257 257 258 259 260 260 261 261 262 263 263 263 264 264 264 264 264 264 264 265 265 267 268 268 269
234 235 235 235 235 235 237 238 240 241 243 244 246 247 248 250 251 252 254 255 256 257 257 258 258 258 259 260 260 261 261 262 262 263 263 263 263 263 263 263 263 264 264 264 265 266 267 267 268
232 233 233 234 235 236 237 238 240 242 243 244 246 247 249 250 252 254 255 256 256 257 258 258 259 259 260 260 260 261 262 262 263 263 263 263 262 262 263 263 263 263 263 264 264 265 266 267 267
230 231 232 233 234 236 238 239 240 242 243 245 247 248 250 251 253 255 256 257 257 258 258 259 259 259 259 260 260 260 261 262 263 263 263 263 262 262 262 263 262 262 262 262 263 263 264 265 266
230 230 230 232 235 236 238 239 239 241 243 245 247 248 250 252 254 256 257 258 258 258 259 259 259 260 260 261 261 261 262 262 263 263 263 263 263 262 262 262 262 261 261 262 262 262 262 263 264
229 229 230 232 235 236 237 238 239 241 243 244 246 248 250 252 254 256 257 259 260 259 259 260 260 260 260 261 261 262 262 262 263 263 263 263 262 262 262 262 261 261 260 260 260 261 261 262 263
228 229 231 232 234 236 237 238 240 241 243 245 246 248 251 253 254 256 257 259 260 261 261 261 261 261 261 262 262 263 263 263 263 264 263 263 263 262 261 261 261 261 260 260 260 260 260 261 261
227 229 230 231 233 235 237 239 240 241 243 246 247 249 251 253 255 256 258 259 261 261 262 262 262 262 263 263 264 265 265 265 264 264 263 263 263 263 263 262 261 261 260 260 259 259 259 259 259
225 228 230 230 232 233 236 238 241 242 244 246 248 249 251 253 256 258 259 260 261 262 263 263 263 264 264 265 266 266 266 266 266 265 264 263 263 263 263 263 262 262 261 261 259 259 259 259 259
225 228 231 232 233 234 236 239 242 244 245 246 248 250 252 255 257 258 260 261 262 263 263 263 264 264 265 266 266 266 266 266 266 266 265 265 264 263 263 262 262 262 261 261 259 258 258 258 258
227 230 233 235 235 237 238 240 243 245 246 248 249 251 254 256 257 259 260 262 263 264 265 265 266 266 266 266 267 267 267 267 266 266 266 266 265 265 264 263 262 262 261 261 260 259 258 257 257
231 233 235 238 239 240 241 242 244 247 248 249 250 252 254 257 258 259 262 264 265 266 267 267 267 267 267 268 268 268 268 268 267 266 266 266 266 267 265 263 262 262 261 261 261 260 258 257 257
234 238 240 241 243 243 243 244 246 248 249 250 252 253 255 258 260 262 264 265 266 267 266 267 267 267 268 268 269 270 269 268 267 266 266 267 268 267 266 265 263 261 261 260 260 260 259 258 258
234 239 243 245 246 247 247 246 247 249 250 251 253 256 258 260 261 263 265 266 266 267 267 267 267 268 269 270 270 271 271 270 269 267 267 267 268 268 267 266 263 262 261 260 260 260 259 257 257
236 240 245 247 248 249 251 250 249 251 251 252 254 257 259 262 264 265 265 266 266 267 267 267 268 269 269 270 272 273 273 272 271 269 268 268 269 269 268 266 264 263 262 260 260 260 259 256 256
241 243 245 247 251 254 255 257 253 254 254 254 256 258 261 263 264 265 266 266 266 267 268 268 270 270 271 272 274 275 276 274 273 272 271 270 269 268 267 266 265 263 261 260 260 260 259 256 255
242 243 245 248 252 255 258 261 260 258 257 257 258 260 263 264 264 264 265 266 266 267 268 269 271 273 275 277 277 278 277 276 275 273 271 270 269 269 267 266 265 264 262 261 260 260 260 258 256
242 246 249 253 256 260 262 264 264 262 260 260 261 261 262 263 264 264 265 266 268 268 268 270 272 275 277 278 279 279 279 278 277 276 274 273 271 270 268 266 265 264 264 263 261 261 261 259 257
249 252 256 261 265 266 266 267 268 266 264 263 262 262 262 263 263 264 265 267 269 269 270 272 274 277 279 281 281 281 281 279 278 277 275 275 274 271 269 269 267 265 265 265 263 262 262 260 257
258 260 262 267 271 272 271 271 270 268 266 264 262 261 262 262 263 265 266 268 271 272 272 274 276 278 280 282 282 280 281 280 278 279 278 277 276 275 271 269 269 267 265 264 264 262 263 262 259
264 264 267 271 276 280 278 276 274 268 267 265 261 261 262 264 266 267 269 271 274 275 275 276 277 279 282 282 282 283 283 281 281 280 282 281 279 277 274 271 269 268 267 267 267 266 266 264 260
270 273 274 275 280 285 285 284 281 277 272 268 266 265 267 268 269 270 272 274 277 279 278 278 278 281 283 284 284 284 286 285 284 283 284 284 282 279 277 274 272 271 270 270 269 269 269 267 262
279 279 278 279 283 286 289 293 289 284 278 272 270 270 272 273 273 275 277 279 280 282 283 281 280 282 284 286 285 286 288 287 286 287 288 287 285 283 281 277 274 273 271 272 272 272 270 268 265
Height
5803 5805 5808 5811 5814 5816 5820 5824 5827 5830 5832 5834 5836 5838 5841 5844 5847 5851 5852 5852 5853 5854 5856 5857 5858 5859 5860 5862 5863 5864 5865 5866 5867 5868 5869 5870 5870 5871 5872 5872 5873 5874 5874 5875 5876 5876 5876 5876 5877
5796 5799 5802 5804 5807 5811 5815 5819 5822 5824 5826 5829 5831 5834 5837 5839 5842 5844 5846 5848 5849 5851 5852 5854 5855 5856 5857 5858 5860 5861 5862 5863 5864 5864 5866 5866 5867 5868 5869 5870 5871 5871 5872 5873 5873 5874 5874 5874 5874
5788 5792 5795 5798 5801 5806 5810 5814 5816 5819 5821 5824 5826 5829 5832 5835 5837 5839 5841 5843 5845 5847 5848 5850 5851 5852 5854 5855 5856 5857 5858 5859 5860 5861 5862 5863 5864 5865 5866 5867 5868 5868 5869 5870 5870 5871 5871 5872 5872
5781 5784 5787 5791 5795 5801 5804 5808 5810 5813 5816 5819 5822 5825 5827 5830 5832 5835 5836 5839 5841 5842 5844 5845 5847 5848 5850 5851 5852 5853 5854 5856 5857 5857 5858 5859 5860 5861 5862 5863 5864 5865 5866 5866 5867 5868 5868 5869 5869
5772 5776 5780 5784 5789 5793 5797 5801 5804 5807 5810 5814 5817 5820 5822 5825 5827 5829 5831 5834 5836 5838 5839 5841 5842 5844 5845 5847 5848 5849 5850 5851 5852 5853 5854 5855 5856 5857 5858 5859 5860 5861 5862 5863 5863 5864 5865 5865 5865
5764 5768 5773 5778 5783 5787 5791 5794 5798 5801 5804 5808 5811 5814 5817 5820 5822 5824 5826 5828 5831 5833 5834 5836 5837 5839 5840 5842 5843 5844 5845 5846 5848 5849 5850 5851 5852 5853 5854 5855 5856 5857 5858 5858 5859 5860 5860 5861 5861
5756 5761 5766 5771 5776 5780 5785 5788 5792 5795 5799 5802 5805 5808 5811 5814 5816 5818 5820 5822 5825 5827 5829 5830 5832 5833 5834 5836 5837 5839 5840 5841 5842 5844 5845 5846 5847 5848 5849 5850 5851 5852 5853 5853 5854 5855 5856 5857 5857
5748 5754 5759 5764 5769 5774 5778 5782 5786 5789 5793 5796 5799 5802 5805 5808 5810 5812 5814 5816 5818 5820 5822 5824 5825 5827 5828 5830 5831 5832 5834 5835 5836 5837 5839 5840 5841 5842 5843 5844 5845 5846 5847 5848 5849 5850 5851 5852 5852
5740 5747 5751 5758 5763 5767 5771 5775 5779 5783 5786 5790 5793 5796 5799 5801 5804 5806 5808 5810 5812 5814 5815 5817 5818 5820 5821 5823 5824 5825 5827 5828 5829 5831 5832 5833 5834 5835 5837 5838 5839 5840 5841 5842 5843 5844 5845 5846 5847
5733 5739 5745 5750 5755 5760 5764 5768 5772 5776 5780 5783 5786 5789 5792 5795 5797 5799 5801 5803 5805 5806 5808 5809 5811 5812 5814 5815 5816 5818 5819 5820 5822 5823 5824 5825 5827 5828 5829 5831 5832 5833 5835 5836 5837 5838 5839 5840 5841
5726 5732 5738 5743 5747 5752 5757 5761 5765 5769 5773 5776 5779 5782 5785 5787 5790 5792 5794 5796 5797 5799 5800 5801 5803 5804 5806 5807 5808 5810 5811 5812 5813 5814 5816 5817 5819 5820 5821 5823 5824 5826 5827 5828 5830 5830 5832 5833 5834
5720 5725 5731 5736 5740 5745 5749 5754 5758 5762 5766 5769 5772 5775 5777 5780 5782 5784 5786 5788 5790 5791 5792 5793 5795 5796 5797 5799 5800 5801 5802 5803 5804 5806 5807 5808 5810 5811 5813 5814 5816 5817 5819 5820 5822 5823 5824 5825 5827
5714 5719 5724 5729 5733 5738 5742 5746 5751 5755 5758 5762 5765 5767 5770 5772 5775 5776 5778 5780 5781 5783 5784 5785 5786 5787 5789 5790 5791 5792 5793 5794 5795 5796 5797 5798 5800 5802 5803 5805 5806 5808 5809 5811 5813 5814 5816 5817 5819
5708 5713 5718 5723 5727 5731 5736 5740 5744 5748 5751 5755 5758 5760 5763 5765 5767 5769 5770 5771 5773 5774 5775 5776 5777 5778 5780 5781 5782 5783 5784 5785 5786 5787 5787 5788 5790 5791 5793 5795 5796 5798 5799 5801 5803 5805 5806 5808 5810
5703 5708 5713 5717 5721 5725 5730 5734 5738 5741 5744 5747 5750 5753 5755 5757 5759 5761 5762 5763 5764 5766 5767 5767 5768 5769 5770 5771 5772 5773 5774 5774 5775 5776 5777 5778 5779 5781 5782 5784 5786 5787 5789 5790 5792 5794 5796 5798 5800
5699 5704 5708 5712 5716 5720 5725 5729 5732 5734 5738 5741 5743 5746 5748 5749 5751 5753 5754 5755 5756 5757 5758 5759 5759 5760 5761 5762 5763 5763 5763 5764 5764 5765 5766 5767 5768 5769 5771 5773 5774 5776 5777 5779 5781 5783 5785 5788 5790
5695 5700 5704 5708 5711 5715 5719 5723 5726 5728 5731 5734 5736 5738 5740 5742 5743 5745 5746 5747 5748 5749 5749 5750 5750 5751 5752 5753 5753 5753 5753 5753 5753 5754 5755 5756 5757 5758 5759 5761 5763 5764 5766 5768 5770 5772 5774 5776 5779
5693 5696 5700 5704 5707 5710 5713 5717 5720 5722 5725 5727 5729 5731 5733 5734 5736 5737 5738 5739 5740 5740 5741 5741 5742 5742 5743 5743 5743 5743 5743 5743 5743 5744 5744 5745 5746 5746 5747 5749 5751 5752 5754 5756 5758 5760 5762 5765 5767
5690 5693 5696 5700 5703 5706 5709 5712 5714 5716 5718 5721 5723 5724 5726 5727 5728 5729 5730 5731 5731 5732 5732 5732 5733 5733 5733 5733 5733 5733 5733 5733 5733 5733 5733 5734 5735 5735 5736 5737 5739 5740 5742 5744 5745 5747 5750 5752 5754
5687 5690 5693 5696 5698 5701 5704 5707 5709 5710 5712 5715 5716 5718 5719 5720 5721 5722 5723 5723 5723 5723 5723 5724 5724 5724 5724 5724 5723 5723 5723 5723 5723 5723 5723 5723 5724 5724 5724 5725 5727 5728 5729 5731 5733 5735 5737 5740 5742
5685 5687 5690 5692 5694 5696 5699 5702 5704 5705 5707 5709 5710 5711 5713 5714 5714 5715 5715 5715 5715 5715 5715 5715 5715 5715 5715 5714 5714 5714 5713 5713 5712 5712 5712 5712 5712 5712 5712 5713 5714 5715 5716 5718 5720 5722 5724 5727 5729
5682 5684 5687 5688 5690 5692 5695 5696 5699 5700 5701 5703 5704 5705 5706 5707 5707 5707 5708 5708 5708 5708 5707 5707 5707 5707 5706 5705 5705 5704 5703 5702 5701 5701 5700 5700 5700 5699 5700 5700 5701 5703 5704 5706 5707 5709 5711 5714 5717
5680 5682 5684 5685 5687 5689 5690 5691 5695 5695 5696 5697 5698 5699 5699 5700 5700 5701 5701 5701 5700 5700 5700 5699 5699 5698 5697 5696 5695 5694 5693 5691 5690 5689 5688 5688 5687 5687 5687 5688 5689 5690 5692 5693 5695 5696 5698 5701 5704
5678 5680 5681 5682 5683 5685 5686 5687 5689 5689 5690 5691 5692 5692 5693 5693 5693 5694 5693 5693 5693 5693 5692 5692 5691 5690 5688 5687 5685 5684 5682 5681 5679 5678 5677 5677 5676 5676 5676 5676 5677 5678 5680 5681 5683 5684 5686 5688 5691
5677 5679 5679 5680 5680 5682 5682 5682 5684 5684 5684 5685 5685 5686 5686 5687 5687 5687 5687 5687 5686 5686 5685 5684 5684 5682 5681 5679 5677 5675 5673 5671 5670 5668 5667 5666 5665 5665 5665 5665 5666 5667 5668 5670 5671 5673 5674 5676 5679
5675 5677 5678 5678 5678 5678 5678 5678 5680 5680 5679 5679 5679 5680 5680 5680 5681 5680 5680 5680 5679 5678 5678 5677 5676 5675 5673 5671 5668 5666 5664 5662 5660 5659 5657 5656 5655 5655 5654 5654 5655 5656 5657 5658 5660 5661 5663 5664 5666
5674 5674 5675 5675 5675 5675 5675 5675 5676 5675 5674 5674 5674 5674 5674 5674 5674 5674 5674 5673 5672 5671 5671 5670 5668 5667 5665 5663 5661 5658 5656 5654 5652 5650 5649 5647 5646 5645 5644 5644 5644 5645 5647 5648 5649 5651 5652 5652 5654
5673 5673 5673 5672 5672 5671 5672 5671 5672 5670 5670 5669 5669 5669 5669 5669 5669 5668 5668 5667 5666 5665 5663 5662 5661 5659 5657 5655 5653 5651 5649 5647 5645 5643 5641 5639 5637 5636 5635 5635 5635 5636 5637 5638 5638 5639 5640 5641 5642
5672 5671 5670 5670 5670 5669 5668 5671 5668 5666 5666 5665 5665 5664 5664 5664 5663 5662 5661 5661 5659 5658 5656 5655 5654 5652 5651 5648 5646 5644 5642 5640 5637 5635 5633 5631 5629 5628 5627 5626 5626 5627 5627 5628 5628 5628 5628 5629 5630
5670 5669 5669 5669 5668 5666 5665 5668 5664 5662 5661 5661 5660 5659 5659 5658 5657 5657 5656 5655 5653 5652 5650 5648 5647 5646 5644 5642 5640 5638 5636 5633 5631 5629 5626 5624 5622 5620 5619 5618 5618 5618 5618 5618 5618 5618 5617 5617 5618